HULIANWANG DIGUI-56

导读 | 豆包AI

HULIANWANG DIGUI-56是中国于2025年8月4日发射的低轨互联网卫星,隶属于我国数字地球互联网星座体系。作为低轨通信卫星网络的组成部分,该卫星旨在补充完善全球宽带互联网覆盖能力,为各类终端提供稳定便捷的空间互联服务,进一步推动我国商业航天与天地一体化网络建设。

Basic Information
目录编号:
65113
目录名称:
HULIANWANG DIGUI-56
国际标识:
2025-168H
轨道中心:
EARTH
卫星名称:
HULIANWANG DIGUI-56
卫星全名:
HULIANWANG DIGUI-56
卫星状态:
在轨 (已飞行222 天)
发射日期:
2025-08-04 UTC
国别 :
中国 (CN)
星等 :
--
Orbit Information
数据来源 国际轨道数据 AOE轨道数据
星历时间 2026-03-13T23:11:33+0800
11小时前
查看轨道信息
2026-03-11T17:00:00+0800
2天前
查看轨道信息
半长轴 7527.393km 7527.395km
偏心率 0.0011029 0.0010937
轨道倾角 49.999° 50.000°
近地点辐角 188.297° 181.264°
升交点赤经 308.157° 316.255°
平近点角 171.773° 166.047°
近地点 1140.954km 1141.025km
远地点 1157.558km 1157.491km
周期 108.324分钟 108.325分钟
每日圈数 13.293395 13.293391
Detailed Information
使用方式:
暂无
2D Orbit Map
3D Orbit Map
Orbit Altitude Analysis Chart
Orbit Inclination Analysis Chart
Orbit Comprehensive Analysis Chart
View Comprehensive Chart